Other Public Products
Issued by NWS Grand Forks, ND

Home | Current Version | Previous Version | Graphics & Text | Print | Product List | Glossary On
Versions: 1 2 3 4 5 6 7 8 9 10 11 12 13 14 15 16 17 18 19 20 21 22 23 24 25 26 27 28 29 30 31 32 33 34 35 36 37 38 39 40 41 42 43 44 45 46 47 48 49 50
000
FPUS83 KFGF 211810
OPUFGF
PRAIRIE TO PINES WEATHER ROUNDUP
NATIONAL WEATHER SERVICE EASTERN NORTH DAKOTA/GRAND FORKS ND
1200 PM CST SUN JAN 21 2018

 **SATELLITE DATA USED TO AUGMENT SKY COVER AT AUTOMATED STATIONS**
 *****  WEATHER ACROSS EASTERN NORTH DAKOTA  *****

CITY           SKY/WX    TMP DP  RH WIND       PRES   REMARKS
GRAND FORKS    CLOUDY    25  22  88 N6        30.10F WCI  18
6HR MIN TEMP:  20; 6HR MAX TEMP:  25;

GRND FORKS AFB CLOUDY    25  21  85 NE6       30.10S WCI  18
GRND FORKS NWS NOT AVBL
BUXTON           N/A     24  24  99 N3          N/A
DEVILS LAKE    FOG       22  21  96 SW6       30.08S VSB 1/4 WCI  14
6HR MIN TEMP:   6; 6HR MAX TEMP:  22;

FARGO          CLOUDY    22  21  96 N8        30.08S FOG     WCI  12
6HR MIN TEMP:  17; 6HR MAX TEMP:  22;

WAHPETON ARPT  FAIR      28  25  86 N9        30.05F WCI  20
$$

 *****  WEATHER ACROSS CENTRAL AND WESTERN NORTH DAKOTA  *****

CITY           SKY/WX    TMP DP  RH WIND       PRES   REMARKS
JAMESTOWN      FOG       24  23  96 N9        30.06F VSB 1/4 WCI  14
6HR MIN TEMP:  14; 6HR MAX TEMP:  24;

BISMARCK       FAIR      23  19  85 W3        30.07F
6HR MIN TEMP:   9; 6HR MAX TEMP:  23;

MINOT          FAIR      26  18  71 S5        30.02F WCI  20
6HR MIN TEMP:  13; 6HR MAX TEMP:  26;

MINOT AFB      FAIR      24  19  78 SW3       30.02S
6HR MIN TEMP:   8; 6HR MAX TEMP:  24;

GARRISON         N/A     21  17  84 S3        30.04S
6HR MIN TEMP:   5; 6HR MAX TEMP:  21;

WILLISTON      FAIR      20  16  84 S7        30.02F WCI  11
6HR MIN TEMP:   3; 6HR MAX TEMP:  20;

DICKINSON      FAIR      30  19  63 W9        30.00F WCI  22
6HR MIN TEMP:  18; 6HR MAX TEMP:  30;

HETTINGER      FAIR      27  20  75 W5        30.03F WCI  22
6HR MIN TEMP:  16; 6HR MAX TEMP:  27;

$$

 *****  OTHER OBSERVATIONS NORTHEAST NORTH DAKOTA  *****

CITY           SKY/WX    TMP DP  RH WIND       PRES   REMARKS
WALHALLA       FAIR      21  21 100 N7        30.10S FOG     WCI  13
LANGDON        NOT AVBL
CAVALIER         N/A     21  21 100 N8        30.09F WCI  12
GRAFTON        NOT AVBL
CANDO          FOG       19  19 100 CALM      30.08F VSB 1/4
FORT TOTTEN      N/A     24  23  95 S2        29.95S
ROLLA          FOG       21  21 100 CALM      30.03F VSB<1/4
RUGBY          NOT AVBL
 ***** THE ABOVE OBSERVATIONS ARE NON NWS ARE NOT QUALITY
        CONTROLLED AND MAY MIS-REPORT RAIN FOR SNOW...
$$

 *****  OTHER OBSERVATIONS SOUTHEAST NORTH DAKOTA *****

CITY           SKY/WX    TMP DP  RH WIND       PRES   REMARKS
COOPERSTOWN    CLOUDY    25  25 100 CALM      30.07F
VALLEY CITY    NOT AVBL
OAKES            N/A     27  27 100 NE7       30.06S WCI  19
GWINNER          N/A     28  25  86 NE9       30.06S WCI  20
BUFFALO        NOT AVBL
WYNDMERE       NOT AVBL
 ***** THE ABOVE OBSERVATIONS ARE NON NWS ARE NOT QUALITY
       CONTROLLED AND MAY MIS-REPORT RAIN FOR SNOW...
$$

  *****  WEATHER ACROSS NORTHERN MINNESOTA  *****

CITY           SKY/WX    TMP DP  RH WIND       PRES   REMARKS
FLAG ISLAND    CLOUDY    23  21  93 NW6       30.05F WCI  16
WARROAD        CLOUDY    25  21  86 NW5       30.07S WCI  19
ROSEAU         CLOUDY    25  19  80 NE3       30.07S
HALLOCK        CLOUDY    21  21 100 N3        30.10R
THF RVR FALLS  CLOUDY    25  24  96 N5        30.08S WCI  19
6HR MIN TEMP:  15; 6HR MAX TEMP:  25;

HALSTAD        NOT AVBL
FOSSTON        PTSUNNY   21  21 100 CALM      30.06F FOG
BAUDETTE       CLOUDY    25  24  96 NW9       30.04R FOG     WCI  15
6HR MIN TEMP:  20; 6HR MAX TEMP:  25;

WASKISH        FOG       21  19  93 CALM      30.05R VSB 1/2
CROOKSTON      FAIR      21  21 100 N3        30.11S
$$
  *****  WEATHER ACROSS CENTRAL AND WEST MINNESOTA  *****

CITY           SKY/WX    TMP DP  RH WIND       PRES   REMARKS
BEMIDJI        CLOUDY    22  21  96 N3        30.02F FOG
6HR MIN TEMP:   6; 6HR MAX TEMP:  22;

PARK RAPIDS    FAIR      28  26  92 CALM      30.00S
6HR MIN TEMP:  12; 6HR MAX TEMP:  28;

WADENA         FAIR      28  28 100 CALM      30.00F
DETROIT LAKES  FAIR      25  23  93 NW5       30.03S WCI  19
MOORHEAD       PTSUNNY   21  19  93 N8        30.08S FOG     WCI  12
FERGUS FALLS   FAIR      30  27  86 N6        30.02F WCI  24
ELBOW LAKE     FAIR      31  28  90 N5        30.02S
6HR MIN TEMP:  26; 6HR MAX TEMP:  31;

MORRIS MN      FAIR      30  28  93 NW8       30.01S WCI  23
STAPLES        FAIR      28  28 100 CALM      30.00S
WHEATON        FAIR      28  25  86 NW6       30.06S WCI  22
$$
  *****  WEATHER ELSEWHERE ACROSS MINNESOTA  *****

CITY           SKY/WX    TMP DP  RH WIND       PRES   REMARKS
DULUTH         FAIR      32  26  78 CALM      29.96F
6HR MIN TEMP:  23; 6HR MAX TEMP:  32;

INTRNTL FALLS  CLOUDY    23  20  88 CALM      30.03S FOG
6HR MIN TEMP:   8; 6HR MAX TEMP:  24;

ELY            CLOUDY    25  25 100 CALM      29.99F FOG
CLOQUET        FAIR      30  25  80 CALM      29.97F
BRAINERD       FAIR      32  26  78 CALM      30.00F
6HR MIN TEMP:  22; 6HR MAX TEMP:  32;

HIBBING        FAIR      24  23  96 CALM      29.98F
6HR MIN TEMP:   6; 6HR MAX TEMP:  24;

ALEXANDRIA     CLOUDY    34  28  79 N3        29.99F
6HR MIN TEMP:  28; 6HR MAX TEMP:  34;

SAINT CLOUD    CLOUDY    36  29  75 N3        29.99S
6HR MIN TEMP:  30; 6HR MAX TEMP:  36;

MINNEAPOLIS    CLOUDY    38  31  76 N6        29.96F
6HR MIN TEMP:  34; 6HR MAX TEMP:  38;

$$

  *****  WEATHER ACROSS SOUTH DAKOTA  *****

CITY           SKY/WX    TMP DP  RH WIND       PRES   REMARKS
SIOUX FALLS    CLOUDY    39  32  76 NE15      29.95S
6HR MIN TEMP:  32; 6HR MAX TEMP:  40;

BROOKINGS      CLOUDY    34  30  85 N8        29.97F
WATERTOWN      CLOUDY    33  27  78 N9        30.00S
6HR MIN TEMP:  30; 6HR MAX TEMP:  34;

HURON          LGT SNOW  32  31  96 N10       30.02F VSB 3/4 WCI  24
6HR MIN TEMP:  32; 6HR MAX TEMP:  35; 6HR PCP:  0.13;

SISSETON         N/A     29  24  82 NW9       30.04R WCI  20
ABERDEEN       PTSUNNY   29  24  82 N9        30.05F WCI  20
6HR MIN TEMP:  25; 6HR MAX TEMP:  29;

MITCHELL       CLOUDY    35  33  92 N13       30.01F
PIERRE         NOT AVBL
MOBRIDGE       FAIR      31  24  75 N3        30.02S
RAPID CITY     CLOUDY    33  24  69 N12       30.01S WCI  24
6HR MIN TEMP:  27; 6HR MAX TEMP:  33;

$$

  *****  SOME WEATHER IN NEARBY STATES *****

CITY           SKY/WX    TMP DP  RH WIND       PRES   REMARKS
GLASGOW MT     FAIR      20  17  88 W3        30.02F
6HR MIN TEMP:   6; 6HR MAX TEMP:  20;

GREAT FALLS MT FAIR      34  17  50 SW14      30.01F WCI  25
6HR MIN TEMP:  21; 6HR MAX TEMP:  34;

CHEYENNE WY    LGT SNOW  21  19  92 N20G26    29.86R VSB 3/4 WCI   6
6HR MIN TEMP:  20; 6HR MAX TEMP:  22; 6HR PCP:  0.05;

SCOTTSBLUFF NE LGT SNOW  29  26  89 N21       29.92S FOG     WCI  16
6HR MIN TEMP:  29; 6HR MAX TEMP:  30; 6HR PCP: TRACE;

OMAHA NE       LGT RAIN  40  39  97 N10       29.77F FOG
6HR MIN TEMP:  39; 6HR MAX TEMP:  41; 6HR PCP:  0.01;

DES MOINES IA  DRIZZLE   41  39  93 NE7       29.81F FOG
6HR MIN TEMP:  40; 6HR MAX TEMP:  41; 6HR PCP: TRACE;

DAVENPORT IA   CLOUDY    43  40  89 E6        29.89F FOG
6HR MIN TEMP:  40; 6HR MAX TEMP:  44; 6HR PCP: TRACE;

CHICAGO IL     FOG       43  40  89 SE5       29.93F VSB 1
6HR MIN TEMP:  37; 6HR MAX TEMP:  43;

EAU CLAIRE WI  CLOUDY    37  31  78 E3        29.95F HAZE
6HR MIN TEMP:  25; 6HR MAX TEMP:  37; 6HR PCP: TRACE;

LA CROSSE WI   FOG       31  29  92 CALM      29.93F VSB 3/4
6HR MIN TEMP:  21; 6HR MAX TEMP:  30;

$$

  *****  SOME NATIONAL WEATHER *****

CITY           SKY/WX    TMP DP  RH WIND       PRES   REMARKS
LA GUARDIA NY  PTSUNNY   48  29  47 NW5       30.14F
6HR MIN TEMP:  42; 6HR MAX TEMP:  49;



USA.gov is the U.S. government's official web portal to all federal, state and local government web resources and services.